Deming, NM

5:56 AM MST on January 16, 2017 (GMT -0700)
Deming Municipal

Weather History for KDMN - March, 2014

Change the Weather History Date:

Tuesday, March 18, 2014

  Actual Average Record
Temperature  
Mean Temperature 59 °F 52 °F  
Max Temperature 74 °F 68 °F 84 °F (2007)
Min Temperature 43 °F 35 °F 22 °F (1960)
Degree Days  
Heating Degree Days 6    
Growing Degree Days 9 (Base 50)    
Moisture  
Dew Point 10 °F    
Average Humidity 18    
Maximum Humidity 28    
Minimum Humidity 7    
Precipitation  
Precipitation 0.00 in 0.00 in 0.33 in (1964)
Month to date precipitation 0.38 0.28  
Year to date precipitation 0.38 1.48  
Sea Level Pressure  
Sea Level Pressure 29.66 in    
Wind  
Wind Speed 14 mph (West)    
Max Wind Speed 31 mph    
Max Gust Speed 40 mph    
Visibility 10 miles    
Events      
T = Trace of Precipitation, MM = Missing Value Source: NWS Daily Summary

Daily Weather History Graph

Daily Weather History Graph

Search for Another Location

Airport or City:

Trip Planner

Search our weather history database for the weather conditions in past years. The results will help you decide how hot, cold, wet, or windy it might be!

Date:

Astronomy

Mar. 18, 2014 Rise Set
Actual Time 7:17 AM MDT 7:21 PM MDT
Civil Twilight 6:52 AM MDT 7:45 PM MDT
Nautical Twilight 6:24 AM MDT 8:14 PM MDT
Astronomical Twilight 5:55 AM MDT 8:42 PM MDT
Moon 9:31 PM MDT (3/18) 8:16 AM MDT (3/18)
Length of Visible Light 12h 52m
Length of Day
12h 03m
Waning Gibbous, 96% of the Moon is Illuminated
Mar 18
Waning Gibbous
Mar 23
Last Quarter
Mar 30
New
Apr 7
First Quarter
Apr 15
Full

Hourly Weather History & Observations

Time (MDT) Temp. Windchill Dew Point Humidity Pressure Visibility Wind Dir Wind Speed Gust Speed Precip Events Conditions
12:53 AM 52.0 °F - 7.0 °F 16% 29.57 in 10.0 mi WSW 9.2 mph - N/A   Clear
1:53 AM 48.9 °F - 8.1 °F 19% 29.57 in 10.0 mi WSW 10.4 mph - N/A   Clear
2:53 AM 50.0 °F - 9.0 °F 19% 29.57 in 10.0 mi WSW 11.5 mph - N/A   Clear
3:53 AM 52.0 °F - 9.0 °F 18% 29.55 in 10.0 mi West 12.7 mph - N/A   Clear
4:53 AM 51.1 °F - 9.0 °F 18% 29.55 in 10.0 mi WNW 11.5 mph - N/A   Clear
5:53 AM 48.9 °F - 10.0 °F 21% 29.57 in 10.0 mi West 8.1 mph - N/A   Clear
6:53 AM 48.9 °F - 10.0 °F 21% 29.61 in 10.0 mi West 9.2 mph - N/A   Clear
7:53 AM 45.0 °F 41.2 °F 14.0 °F 29% 29.66 in 10.0 mi WNW 6.9 mph - N/A   Clear
8:53 AM 54.0 °F - 12.9 °F 20% 29.68 in 10.0 mi WSW 10.4 mph - N/A   Clear
9:53 AM 61.0 °F - 12.9 °F 15% 29.68 in 10.0 mi West 16.1 mph - N/A   Clear
10:53 AM 66.0 °F - 15.1 °F 14% 29.68 in 10.0 mi West 25.3 mph 33.4 mph N/A   Clear
11:53 AM 69.1 °F - 14.0 °F 12% 29.69 in 10.0 mi West 19.6 mph 26.5 mph N/A   Clear
12:53 PM 69.1 °F - 12.0 °F 11% 29.69 in 10.0 mi West 24.2 mph 34.5 mph N/A   Clear
1:53 PM 73.0 °F - 10.0 °F 9% 29.68 in 10.0 mi WNW 20.7 mph 34.5 mph N/A   Clear
2:53 PM 73.9 °F - 9.0 °F 8% 29.65 in 10.0 mi West 24.2 mph 34.5 mph N/A   Clear
3:53 PM 73.0 °F - 6.1 °F 7% 29.65 in 10.0 mi WNW 23.0 mph 34.5 mph N/A   Clear
4:53 PM 72.0 °F - 5.0 °F 7% 29.66 in 10.0 mi West 24.2 mph 32.2 mph N/A   Clear
5:53 PM 71.1 °F - 8.1 °F 9% 29.67 in 10.0 mi WNW 21.9 mph 26.5 mph N/A   Clear
6:53 PM 69.1 °F - 8.1 °F 9% 29.69 in 10.0 mi WNW 15.0 mph - N/A   Clear
7:53 PM 63.0 °F - 9.0 °F 12% 29.74 in 10.0 mi WNW 10.4 mph - N/A   Clear
8:53 PM 57.9 °F - 7.0 °F 13% 29.76 in 10.0 mi NW 5.8 mph - N/A   Clear
9:53 PM 53.1 °F - 10.0 °F 18% 29.77 in 10.0 mi WNW 9.2 mph - N/A   Clear
10:53 PM 51.1 °F - 8.1 °F 18% 29.78 in 10.0 mi West 9.2 mph - N/A   Clear
11:53 PM 45.0 °F 41.8 °F 7.0 °F 21% 29.83 in 10.0 mi SSW 5.8 mph - N/A   Clear